Location: Campolattaro
(41.2833°N, 14.7333°E)
Time: 07:36:52
(UTC+00:00)

Cosmos 1743 - Pass Details

Date: 19 May 2025
Orbit: 431 x 441 km, 82.5° (Epoch: 22 June)

Event Time Altitude Azimuth Distance (km) Brightness Sun altitude
Rises 20:17:04 0° 343° (NNW) 2,453 7.4 -18.3°
Reaches altitude 10° 20:19:15 10° 333° (NNW) 1,575 6.3 -18.6°
Maximum altitude 20:22:22 34° 268° (W) 759 3.8 -19.0°
Enters shadow 20:23:54 22° 220° (SW) 1,012 4.0 -19.2°
